Find Starlink 2213

NORAD ID: 47780 Int'l Des: 2021-017 Owner: SPXS Country: US Constellation: starlink operational
LEOCIRCULAR

Current View

Loading 3D Globe...

About Starlink 2213

Description loading...

Upcoming Passes

Passes for default location (London). Set your location on the main map for personalized predictions.

Altitude History

Loading altitude history...

Two-Line Element Set

1 47780U 21017BL 26150.12006236 .00000025 00000-0 12572-4 0 9999
2 47780 53.1595 185.0729 0001045 77.0127 283.0991 15.31718904290374
Epoch: May 30, 2026 • Age: 11 hours

Current Status

Altitude 474.6 km
Velocity 7.63 km/s
Sub-Earth Point 44.83°N, 130.92°E
Launch Date Mar 4, 2021
Age 5.2 years
Type internet

Technical Details

Classification Payload
Mass 260.00 kg
Dry Mass 248.00 kg
Total Mass 260.00 kg
Length 0.20 m
Diameter 2.80 m
Span 9.00 m
Shape Box + pan
Manufacturer SPXS
Bus Type Starlink
Phase Status In Orbit
Owner/State SPXS/US

Most Searched